TimeAKDT,TemperatureF,Dew PointF,Humidity,Sea Level PressureIn,VisibilityMPH,Wind Direction,Wind SpeedMPH,Gust SpeedMPH,PrecipitationIn,Events,Conditions,WindDirDegrees,DateUTC
12:16 AM,21.2,12.2,68,30.19,10.0,East,3.5,-,N/A,,Clear,80,2013-05-10 08:16:00
12:36 AM,21.2,10.4,63,30.19,10.0,East,4.6,-,N/A,,Clear,80,2013-05-10 08:36:00
12:56 AM,21.2,10.4,63,30.19,10.0,NE,4.6,-,N/A,,Clear,40,2013-05-10 08:56:00
1:16 AM,21.2,12.2,68,30.19,10.0,ENE,3.5,-,N/A,,Clear,70,2013-05-10 09:16:00
1:36 AM,19.4,17.6,93,30.19,10.0,ENE,5.8,-,N/A,,Clear,60,2013-05-10 09:36:00
1:56 AM,19.4,17.6,93,30.18,10.0,East,3.5,-,N/A,,Clear,100,2013-05-10 09:56:00
2:16 AM,19.4,12.2,74,30.18,10.0,ENE,3.5,-,N/A,,Clear,60,2013-05-10 10:16:00
2:36 AM,19.4,6.8,58,30.18,10.0,ENE,3.5,-,N/A,,Clear,70,2013-05-10 10:36:00
2:56 AM,19.4,5.0,54,30.18,10.0,East,4.6,-,N/A,,Clear,80,2013-05-10 10:56:00
3:16 AM,17.6,6.8,63,30.17,10.0,East,3.5,-,N/A,,Clear,90,2013-05-10 11:16:00
3:36 AM,15.8,10.4,79,30.17,10.0,East,4.6,-,N/A,,Clear,90,2013-05-10 11:36:00
3:56 AM,15.8,14.0,93,30.17,10.0,East,4.6,-,N/A,,Clear,80,2013-05-10 11:56:00
4:16 AM,15.8,-9999,N/A,30.16,10.0,ENE,5.8,-,N/A,,Clear,70,2013-05-10 12:16:00
4:36 AM,15.8,-9999,N/A,30.16,10.0,ENE,5.8,-,N/A,,Clear,70,2013-05-10 12:36:00
4:56 AM,15.8,-9999,N/A,30.15,10.0,East,3.5,-,N/A,,Clear,100,2013-05-10 12:56:00
5:16 AM,15.8,-9999,N/A,30.16,10.0,East,3.5,-,N/A,,Clear,100,2013-05-10 13:16:00
5:36 AM,15.8,15.8,100,30.15,10.0,Calm,Calm,-,N/A,,Clear,0,2013-05-10 13:36:00
5:56 AM,15.8,14.0,93,30.15,10.0,Calm,Calm,-,N/A,,Clear,0,2013-05-10 13:56:00
6:16 AM,15.8,12.2,86,30.14,10.0,Calm,Calm,-,N/A,,Clear,0,2013-05-10 14:16:00
6:36 AM,17.6,8.6,68,30.14,10.0,Calm,Calm,-,N/A,,Clear,0,2013-05-10 14:36:00
6:56 AM,17.6,6.8,63,30.14,10.0,Calm,Calm,-,N/A,,Clear,0,2013-05-10 14:56:00
7:16 AM,17.6,3.2,53,30.14,10.0,Calm,Calm,-,N/A,,Clear,0,2013-05-10 15:16:00
7:36 AM,19.4,1.4,46,30.14,10.0,Calm,Calm,-,N/A,,Clear,0,2013-05-10 15:36:00
7:56 AM,21.2,-0.4,39,30.13,10.0,ENE,3.5,-,N/A,,Clear,60,2013-05-10 15:56:00
8:16 AM,21.2,-2.2,36,30.13,10.0,ENE,4.6,-,N/A,,Clear,70,2013-05-10 16:16:00
8:36 AM,21.2,-2.2,36,30.13,10.0,East,3.5,-,N/A,,Clear,100,2013-05-10 16:36:00
8:56 AM,21.2,-2.2,36,30.13,10.0,East,3.5,-,N/A,,Clear,100,2013-05-10 16:56:00
9:16 AM,23.0,1.4,39,30.12,10.0,East,3.5,-,N/A,,Clear,80,2013-05-10 17:16:00
9:36 AM,24.8,3.2,40,30.12,10.0,East,4.6,-,N/A,,Clear,80,2013-05-10 17:36:00
9:56 AM,24.8,6.8,46,30.12,10.0,SE,3.5,-,N/A,,Clear,130,2013-05-10 17:56:00
10:16 AM,24.8,12.2,59,30.11,10.0,Calm,Calm,-,N/A,,Clear,0,2013-05-10 18:16:00
10:36 AM,26.6,19.4,74,30.10,10.0,Calm,Calm,-,N/A,,Clear,0,2013-05-10 18:36:00
10:56 AM,26.6,19.4,74,30.10,10.0,Calm,Calm,-,N/A,,Clear,0,2013-05-10 18:56:00
11:16 AM,28.4,17.6,64,30.10,10.0,Calm,Calm,-,N/A,,Clear,0,2013-05-10 19:16:00